Regional Weather Roundup
Issued by NWS

Home | Current Version | Previous Version | Graphics & Text | Print | Product List | Glossary On
Versions: 1 2 3 4 5 6 7 8 9 10 11 12 13 14 15 16 17 18 19 20 21 22 23 24 25 26 27 28 29 30 31 32 33 34 35 36 37 38 39 40 41 42 43 44 45 46 47 48 49 50
000
ASUS43 KOAX 280310
RWRNE

WEATHER ROUNDUP FOR NEBRASKA
NATIONAL WEATHER SERVICE OMAHA NE
1000 PM CDT WED MAY 27 2015

NOTES: SATELLITE DATA IS BEING USED TO AUGMENT CLOUD COVER ABOVE
       12000 FEET.
       "FAIR" INDICATES FEW OR NO CLOUDS BELOW 12,000 FEET WITH NO
       SIGNIFICANT WEATHER AND/OR OBSTRUCTIONS TO VISIBILITY.

  * THESE STATIONS DO NOT REPORT WEATHER SUCH AS RAIN...SNOW OR FOG.

NEZ001>004-019>022-054>056-280400-
NEBRASKA PANHANDLE

CITY           SKY/WX    TMP DP  RH WIND       PRES   REMARKS
SCOTTSBLUFF    CLEAR     62  55  77 SE13      30.00R
ALLIANCE       CLEAR     60  55  83 S18       30.00R
CHADRON        CLEAR     60  52  74 CALM      29.95R
KIMBALL          N/A    N/A N/A N/A MISG        N/A
SIDNEY         PTCLDY    58  51  78 SE17      30.05S
$$

NEZ057>060-069>072-079>082-280400-
SOUTHWEST NEBRASKA

CITY           SKY/WX    TMP DP  RH WIND       PRES   REMARKS
NORTH PLATTE   CLOUDY    64  56  75 S6        30.03R
IMPERIAL       PTCLDY    59  53  80 SE13G23   30.06R
LEXINGTON      LGT RAIN  66  61  82 S17G25    30.02F
MCCOOK         CLOUDY    64  58  80 SE22G31   30.04R
OGALLALA       CLEAR     61  58  90 S14G21    30.04R
$$

NEZ005>010-023>029-035>040-094-280400-
NORTH CENTRAL NEBRASKA

CITY           SKY/WX    TMP DP  RH WIND       PRES   REMARKS
VALENTINE      CLOUDY    64  51  62 S13       29.97S
AINSWORTH      CLOUDY    66  55  69 S8        30.02R
BROKEN BOW     CLOUDY    64  56  75 SE9       30.03R
O`NEILL        MOCLDY    65  55  68 S5        30.04R
ORD            CLOUDY    69  50  50 S7        30.02R
THEDFORD       CLOUDY    60  58  94 SE5       30.03F
$$

NEZ041-046>049-061>064-073>077-083>087-280400-
SOUTH CENTRAL NEBRASKA

CITY           SKY/WX    TMP DP  RH WIND       PRES   REMARKS
GRAND ISLAND   CLOUDY    69  56  62 S9        30.06R
AURORA         CLOUDY    68  54  60 S5        30.06R
HASTINGS       CLOUDY    68  57  68 S5        30.07R
HEBRON         CLOUDY    68  57  66 SE3       30.06R
HOLDREGE       LGT RAIN  66  60  79 S8        30.07S
KEARNEY *      CLOUDY    66  57  72 S12       30.05F
YORK           CLOUDY    72  48  43 S9        30.06R
$$

NEZ011>018-030>034-042>045-280400-
NORTHEAST NEBRASKA

CITY           SKY/WX    TMP DP  RH WIND       PRES   REMARKS
NORFOLK        MOCLDY    69  47  45 S9        30.04R
ALBION         CLOUDY    67  55  65 SE5       30.05R
BLAIR          PTCLDY    70  49  46 S5        30.06R
COLUMBUS *     CLOUDY    70  45  40 S8        30.07R
FREMONT        MOCLDY    72  48  42 S7        30.06R
TEKAMAH        MOCLDY    67  56  67 SE9       30.04R
WAYNE          CLOUDY    64  52  66 S8        30.04R
$$

NEZ050>053-065>068-078-088>093-280400-
SOUTHEAST NEBRASKA

CITY           SKY/WX    TMP DP  RH WIND       PRES   REMARKS
LINCOLN        CLOUDY    67  52  58 S8        30.07R
OMAHA EPPLEY   CLOUDY    70  54  56 S6        30.05R
BEATRICE       MOCLDY    70  54  56 SE3       30.07R
NEBRASKA CITY  MOCLDY    67  48  51 S5        30.08R
PLATTSMOUTH    MOCLDY    67  51  55 S7        30.07R
$$

NEZ044-045-051>053-067-280400-
OMAHA AREA

CITY           SKY/WX    TMP DP  RH WIND       PRES   REMARKS
OMAHA EPPLEY   CLOUDY    70  54  56 S6        30.05R
BLAIR          PTCLDY    70  49  46 S5        30.06R
FREMONT        MOCLDY    72  48  42 S7        30.06R
MILLARD        MOCLDY    68  54  61 CALM      30.06R
OFFUTT AFB     MOCLDY    61  55  79 CALM      30.05R
PLATTSMOUTH    MOCLDY    67  51  55 S7        30.07R
WAHOO          FAIR      67  53  62 S8        30.06R
$$



USA.gov is the U.S. government's official web portal to all federal, state and local government web resources and services.